Location: Celina Division
(33.3022°N, 96.7580°W)
Time: 21:12:03
(UTC+00:00)

N. Korean satellite - Pass Details

Date: 08 December 2022
Orbit: 407 x 442 km, 97.3° (Epoch: 05 February)

Event Time Altitude Azimuth Distance (km) Brightness Sun altitude
Rises 11:47:50 0° 8° (N) 2,485 10.1 -18.5°
Reaches altitude 10° 11:49:55 10° 5° (N) 1,599 9.1 -18.0°
Maximum altitude 11:53:19 67° 284° (WNW) 492 6.3 -17.4°
Drops below altitude 10° 11:56:37 10° 200° (SSW) 1,555 9.1 -16.7°
Sets 11:58:37 0° 198° (SSW) 2,409 10.1 -16.3°
